Theta_e
344 344 345 345 346 347 349 350 350 350 350 347 345 344 344 344 343 343 343 344 343 342 341 341 343 344 348 346 345 346 346 346 346 346 345 345 345 345 344 344 345 345 344 343 342 341 341 338 339 339 341 342 344 335 337 337 336 336 335 336 336 336
344 344 345 345 346 347 347 347 346 346 346 344 344 344 342 340 346 340 342 341 340 341 339 339 339 347 344 346 345 347 346 346 345 345 346 345 345 345 344 343 344 344 343 342 342 334 334 338 340 340 339 341 339 335 335 336 334 335 335 334 336 339
344 344 344 344 346 346 345 344 344 345 345 345 345 343 339 341 336 337 338 339 339 338 338 340 341 344 344 346 346 347 346 346 346 345 345 345 345 345 345 344 344 344 342 342 336 331 327 327 328 337 339 339 335 333 335 336 333 334 334 335 335 342
344 342 342 342 344 344 343 343 343 342 341 338 337 338 337 337 337 336 337 336 337 339 338 337 343 343 344 343 345 346 346 346 345 345 344 344 344 344 343 344 343 342 341 338 332 330 328 326 326 327 330 333 333 334 335 335 333 333 334 338 337 342
344 343 342 343 343 342 342 341 341 341 339 337 335 335 336 333 334 337 337 337 337 338 338 337 338 340 339 340 340 340 341 339 339 340 344 337 337 340 341 339 337 337 331 331 330 327 326 325 327 328 328 332 333 333 334 336 334 334 335 336 338 342
343 342 342 341 339 343 342 339 339 340 338 335 334 333 334 332 333 335 336 338 338 336 337 338 336 336 340 338 339 338 339 338 337 338 341 337 337 338 337 336 335 335 332 329 327 326 325 327 326 327 326 327 331 333 335 335 334 334 335 336 338 342
341 341 342 342 341 342 340 340 339 340 337 335 333 331 332 332 332 333 336 338 335 335 336 336 335 335 336 337 336 336 337 335 335 334 339 336 333 337 337 336 333 331 329 327 326 326 326 326 329 328 326 328 330 333 334 334 334 335 335 336 339 342
340 340 340 343 342 341 340 339 341 343 338 339 335 332 332 331 334 334 337 339 339 335 335 334 334 334 335 336 335 336 335 335 334 334 335 335 334 334 335 335 333 331 330 328 327 327 327 328 328 327 326 326 329 332 333 334 334 334 336 337 338 341
341 340 341 343 340 340 340 339 337 336 337 343 335 333 333 334 334 335 337 339 338 334 334 335 334 335 335 333 332 333 334 334 335 335 335 335 337 333 333 334 333 333 331 331 329 327 327 327 327 327 325 326 327 329 332 333 334 334 336 337 337 340
340 340 341 340 339 338 337 336 336 335 337 339 333 334 336 335 334 335 335 337 338 337 335 334 333 332 334 332 331 332 334 334 333 335 334 335 334 332 332 333 332 333 333 331 330 329 328 326 325 327 326 325 325 324 328 332 334 334 335 337 337 339
340 344 340 340 339 337 336 335 335 336 338 336 335 336 334 335 334 336 336 337 338 336 335 334 334 332 333 333 333 333 333 332 331 332 333 333 332 331 331 333 334 334 332 331 330 330 328 325 325 323 326 324 323 323 325 331 334 335 334 335 337 339
339 340 340 340 340 337 335 335 336 335 335 335 336 335 335 336 339 334 336 336 335 335 336 335 334 335 334 332 332 331 332 332 332 333 332 332 331 332 332 334 335 333 333 331 330 329 328 327 324 324 323 323 323 323 322 329 332 335 334 334 336 338
336 338 337 338 337 336 335 336 335 334 334 335 335 335 334 335 334 335 336 335 334 335 335 334 331 329 333 330 330 330 331 332 332 332 332 331 331 330 331 331 333 333 331 330 329 328 331 326 325 325 324 324 323 322 321 329 329 332 334 334 335 336
331 332 331 332 333 333 334 333 334 336 337 334 333 333 335 332 334 336 336 334 334 335 335 335 332 331 331 331 333 333 331 332 333 332 330 329 329 329 329 330 330 328 331 329 328 327 325 324 322 323 324 325 327 324 325 324 326 328 333 334 333 333
330 329 332 330 330 331 332 333 334 336 334 331 331 331 332 332 333 336 334 331 333 336 333 333 333 330 331 331 331 329 331 331 330 330 329 327 327 327 329 328 331 329 329 328 327 325 326 321 321 321 323 325 328 328 328 327 328 326 330 334 332 332
331 331 330 331 330 331 332 332 334 338 333 331 329 330 331 330 332 334 334 334 335 334 334 334 333 332 332 331 330 329 330 332 329 327 329 330 328 327 327 328 329 329 326 327 325 326 322 319 319 319 324 325 324 327 327 329 329 329 328 328 333 332
330 331 330 329 329 329 329 329 330 333 332 330 328 329 330 331 334 333 332 334 332 332 330 332 332 334 333 331 332 330 329 330 329 326 327 328 327 328 327 329 326 329 329 327 329 329 327 327 327 326 327 323 324 326 326 328 329 329 330 327 326 331
331 331 329 329 328 326 327 327 325 328 331 327 329 331 332 333 331 331 331 332 334 333 330 330 331 330 330 331 331 329 329 330 329 328 327 327 327 327 328 326 325 328 329 328 328 328 325 326 329 330 328 327 326 325 325 327 327 330 328 328 327 328
330 330 329 329 328 325 322 321 320 320 321 322 324 328 329 328 329 328 326 326 326 329 333 331 332 330 328 331 330 329 326 327 329 328 328 329 328 327 327 328 327 328 329 329 328 328 327 326 328 329 330 329 331 327 327 328 327 326 326 327 329 330
329 329 327 325 323 318 317 318 317 320 320 320 322 325 324 322 322 322 325 325 325 323 324 326 328 330 331 329 328 327 326 327 328 328 326 325 326 325 326 326 327 327 328 329 330 327 327 327 326 325 325 327 330 329 331 329 325 325 325 324 325 328
328 328 325 323 322 319 317 318 319 318 318 319 321 321 321 321 320 320 321 322 322 322 322 323 323 327 324 331 327 326 327 328 328 327 326 325 325 328 329 327 326 327 327 327 326 329 329 327 324 320 324 326 325 327 329 330 329 326 324 324 324 326
328 327 326 324 323 322 320 318 315 316 318 318 320 317 316 318 321 323 322 322 322 322 323 323 323 322 324 324 328 328 328 328 328 326 326 327 327 329 328 327 327 325 327 324 323 327 326 323 319 317 317 318 320 324 329 328 327 329 327 325 324 326
328 328 326 327 324 322 320 320 318 318 320 319 321 319 317 320 321 320 320 322 324 324 323 320 323 325 321 322 323 324 326 328 328 328 326 324 325 325 325 325 325 323 322 325 325 327 326 323 318 320 319 316 314 313 318 322 325 328 328 326 326 330
328 327 327 326 324 322 324 323 322 321 321 320 319 321 319 319 319 318 319 321 322 322 322 321 322 321 319 319 320 319 318 323 325 326 326 325 323 322 322 324 323 323 323 319 323 325 327 324 323 319 313 313 314 313 311 314 318 324 328 329 331 330
327 326 326 326 323 323 322 320 320 320 320 319 318 316 316 315 315 319 319 319 321 322 321 320 320 320 321 319 319 319 321 318 318 320 324 323 322 323 324 324 323 322 322 320 319 323 325 326 325 325 318 315 312 310 311 314 318 319 325 326 330 331
326 325 325 322 322 322 320 318 316 315 313 312 312 313 312 313 315 315 316 319 321 321 321 320 319 320 321 320 318 319 318 316 317 318 319 317 318 318 319 323 324 325 321 321 320 320 321 325 325 324 324 320 318 313 314 317 315 311 319 324 326 330
325 325 325 322 323 323 320 318 316 314 313 313 313 315 315 316 315 316 318 318 320 320 320 319 319 319 319 321 319 317 314 314 317 316 317 314 315 316 317 318 320 321 322 322 321 318 319 320 322 322 323 322 322 321 320 315 312 313 311 316 321 323
325 325 325 323 323 322 320 319 316 315 316 315 316 316 316 315 318 318 318 319 319 319 320 321 319 316 316 318 316 315 314 312 313 315 316 313 313 314 315 318 318 317 318 318 318 318 317 318 316 316 321 319 320 322 321 322 321 315 311 311 314 320
324 324 324 323 322 322 321 319 316 316 317 318 317 317 317 318 317 319 316 316 317 316 316 317 317 317 316 315 317 315 314 314 312 312 315 314 315 316 314 313 314 315 313 313 315 315 314 313 316 316 318 317 318 317 318 320 319 319 314 311 310 314
324 324 324 322 322 321 320 319 316 316 318 317 317 316 316 315 315 316 317 316 315 314 314 315 314 314 313 315 315 315 314 314 315 316 315 312 312 312 313 313 313 313 313 313 313 313 312 311 311 311 313 315 315 315 316 317 318 318 318 316 310 312
324 324 324 321 320 320 319 318 318 317 317 316 316 315 314 314 315 315 314 315 314 315 315 314 315 314 314 314 314 316 313 315 316 318 316 314 313 314 314 313 314 314 314 313 313 312 312 312 310 309 310 310 309 311 309 308 308 311 311 308 307 308
324 324 323 320 319 320 318 318 318 318 317 316 316 316 314 314 315 314 313 314 315 314 312 314 315 314 314 314 314 314 316 314 316 314 313 314 315 315 313 315 314 314 312 312 312 312 310 310 311 310 309 310 309 310 310 309 309 309 307 307 307 306
324 324 323 319 319 320 317 317 320 318 317 317 317 316 315 314 315 314 313 314 313 312 312 314 313 314 313 313 314 312 312 311 311 313 313 312 313 314 314 313 312 312 311 311 310 310 309 308 309 309 308 309 309 310 310 310 311 309 308 308 305 301
324 324 322 319 319 319 317 317 319 319 318 317 317 316 316 315 316 315 315 315 314 313 312 313 313 313 315 316 314 315 316 313 312 312 313 313 314 315 313 313 313 312 312 311 312 310 309 309 308 308 309 307 307 308 306 309 308 308 308 307 304 303
322 323 322 319 319 319 317 317 319 319 318 316 318 316 317 317 317 315 315 316 315 314 313 313 315 315 317 316 314 315 313 312 313 313 312 312 315 313 314 314 315 313 313 312 311 311 309 309 311 309 307 309 308 307 307 307 308 309 308 308 307 305
317 319 322 320 319 319 318 318 318 319 318 318 319 317 317 318 317 317 316 317 316 315 315 314 316 316 315 317 316 316 315 313 313 312 312 313 313 312 313 313 313 311 311 316 310 310 309 309 307 307 307 308 306 306 308 307 308 308 308 308 309 309
319 319 320 320 321 320 320 320 319 318 318 317 318 317 317 317 316 318 317 316 317 317 316 315 317 316 315 316 317 316 315 314 314 313 313 313 313 313 312 312 311 309 309 311 312 311 310 309 310 309 309 308 305 305 307 307 307 309 308 307 309 307
Wind_Speed
8 8 9 8 7 7 9 13 10 12 14 17 17 13 9 8 8 7 6 6 5 3 2 3 4 3 8 4 6 8 8 8 8 8 9 9 9 9 8 7 5 5 5 4 4 3 4 5 5 8 9 9 6 2 4 3 2 5 5 6 7 7
8 8 9 7 6 6 7 10 7 7 8 12 13 12 7 3 6 5 7 4 3 2 2 2 2 5 3 3 5 9 8 8 7 8 6 7 7 6 6 7 6 5 4 3 4 2 3 5 6 7 9 11 4 3 2 3 3 5 5 4 5 9
8 8 9 8 7 7 8 7 7 8 8 9 9 7 2 3 2 4 3 3 2 2 0 0 1 3 3 4 4 7 8 9 8 8 6 5 6 5 5 5 5 4 4 3 2 3 3 3 4 7 7 7 5 4 3 3 4 5 6 5 5 13
8 9 9 7 6 7 7 7 7 6 6 6 5 5 3 2 2 2 3 3 2 3 0 0 2 4 5 2 4 6 6 8 8 7 7 5 6 6 6 6 5 4 3 2 2 3 3 4 4 4 4 5 6 5 3 2 5 5 5 6 6 14
8 8 8 6 7 6 6 6 6 7 7 5 4 4 3 2 2 3 4 4 1 1 3 2 3 5 3 3 3 3 3 2 2 3 5 3 3 3 4 3 2 3 3 3 3 4 4 5 5 4 5 5 5 5 4 3 6 5 5 5 6 13
8 7 7 6 6 6 7 6 6 6 6 4 4 4 2 2 1 2 3 4 4 2 2 3 2 3 4 4 4 3 3 3 3 3 3 3 4 3 4 3 3 4 4 5 4 5 4 4 6 5 5 4 5 5 6 4 5 5 4 5 6 12
8 7 7 7 6 5 5 5 5 6 6 4 4 3 3 2 1 1 2 3 4 3 3 3 2 2 1 4 4 4 3 2 3 3 3 2 1 2 3 2 3 5 5 3 4 4 5 5 6 6 3 2 4 5 6 7 5 5 5 5 6 11
8 8 6 7 7 6 5 6 6 6 5 5 5 4 4 4 4 4 2 3 3 3 4 3 2 3 1 4 5 3 3 2 4 2 1 2 0 5 5 4 4 4 2 3 4 6 7 7 6 4 4 6 5 5 5 6 6 5 5 5 5 8
8 9 6 7 7 6 6 6 5 6 5 5 4 4 4 3 4 3 2 4 3 2 4 4 3 2 4 4 4 3 3 3 3 2 2 3 3 6 5 4 2 2 1 2 1 3 4 3 2 1 1 0 1 1 3 6 7 7 5 5 5 7
8 8 8 7 6 6 6 6 5 6 6 5 4 4 5 5 4 4 2 3 5 3 4 4 2 3 5 4 4 3 3 2 2 3 3 2 4 3 3 2 1 1 1 3 1 2 2 5 5 3 2 2 2 2 2 4 8 7 6 5 5 6
9 8 8 9 8 7 7 7 6 5 5 5 5 4 4 4 4 4 4 3 4 3 4 1 2 2 4 4 3 4 4 3 1 2 3 2 2 1 1 3 2 3 3 2 2 1 2 3 4 5 2 3 5 3 2 5 7 7 8 6 5 5
8 8 7 7 7 8 7 6 6 5 5 5 5 5 4 4 4 3 3 3 4 3 4 4 1 2 2 3 2 3 4 4 4 4 3 2 1 3 1 1 2 1 3 0 3 3 3 2 2 3 4 2 3 4 3 5 7 7 8 8 6 6
8 7 7 8 7 6 6 7 6 5 4 4 4 4 5 4 4 2 3 3 3 3 4 4 4 3 5 5 1 2 2 3 2 1 2 2 3 2 1 1 2 3 3 1 2 4 2 0 1 2 2 4 3 5 3 4 7 7 8 8 7 7
7 7 5 3 4 6 5 6 6 6 6 5 4 5 4 4 3 4 3 2 4 5 5 4 3 6 3 5 4 4 3 3 3 3 2 2 3 2 0 1 1 2 3 1 3 3 3 3 3 2 3 2 5 4 2 2 3 5 8 7 8 7
8 7 7 7 7 7 6 6 5 5 6 6 6 6 5 4 3 4 3 3 2 5 6 3 3 4 0 4 1 3 2 1 1 1 2 2 3 2 0 1 1 4 2 1 3 4 3 1 1 1 2 4 5 4 4 5 6 5 1 5 7 6
7 8 7 8 8 10 9 7 6 6 5 4 5 5 5 5 5 5 5 5 5 4 2 4 7 4 5 1 1 1 1 1 1 2 2 4 3 3 3 1 1 1 1 2 3 5 5 2 3 4 3 5 4 4 5 6 6 5 4 3 2 4
8 7 6 7 8 7 7 6 6 8 7 5 5 5 4 3 4 4 5 6 7 5 3 3 5 7 6 5 3 3 2 2 0 1 1 1 2 3 3 2 1 3 0 2 2 3 4 4 4 3 4 4 4 3 5 4 4 4 5 5 5 5
7 7 6 7 6 7 5 4 4 5 5 5 3 4 4 4 3 5 5 5 7 6 6 5 5 5 5 5 5 5 5 4 2 1 1 2 0 1 2 2 2 1 2 3 3 2 1 2 2 1 3 4 2 3 3 2 3 4 5 4 4 3
7 6 5 6 5 5 5 4 4 5 6 7 6 5 4 4 3 4 5 5 5 5 6 5 4 5 5 5 4 4 2 1 3 2 1 2 0 1 3 2 2 2 2 1 3 2 1 1 2 2 2 2 3 3 3 2 2 2 3 3 2 4
6 6 5 6 7 6 6 6 5 5 6 6 7 7 6 5 5 5 5 6 6 5 4 5 4 4 5 5 4 3 1 2 1 3 2 2 0 2 2 2 3 3 2 1 2 3 3 1 2 3 2 2 2 2 4 4 3 2 1 3 4 4
6 6 7 7 5 5 5 4 4 6 6 6 7 6 6 6 6 6 6 6 4 5 4 4 3 3 4 5 3 2 2 1 0 1 3 3 3 0 1 2 3 2 2 2 1 0 2 2 2 1 3 2 2 2 2 1 2 4 3 3 3 4
6 6 7 7 6 5 4 6 6 6 5 6 7 7 6 6 6 6 6 4 4 2 3 2 0 3 4 5 6 4 4 4 2 1 1 2 2 2 2 1 3 1 2 2 2 2 2 3 1 2 1 1 1 1 2 1 1 3 4 4 4 4
7 7 7 6 6 6 4 5 4 4 7 4 3 5 6 5 4 5 4 3 2 2 1 2 3 4 5 5 5 5 4 4 3 2 2 2 3 3 3 3 4 5 5 4 3 3 6 1 3 0 1 2 1 1 2 2 1 0 2 3 4 4
8 7 6 5 6 5 6 7 9 9 7 8 7 6 6 4 5 6 5 3 3 4 5 4 4 5 5 5 5 4 3 3 3 3 3 3 2 2 1 1 1 2 4 2 0 1 2 3 1 6 1 1 1 1 0 2 0 1 1 1 2 3
8 7 5 7 9 9 10 10 9 8 8 8 6 6 6 6 5 5 4 3 4 6 7 6 4 4 5 6 5 6 4 4 4 3 2 2 2 2 3 3 2 2 3 4 2 1 2 1 0 2 3 2 2 1 1 1 1 1 1 1 1 2
5 5 7 8 9 9 10 10 9 9 8 7 7 6 7 7 6 6 4 3 5 5 5 6 6 6 6 4 5 5 4 3 5 6 5 5 5 3 1 1 2 3 2 2 4 3 1 3 3 2 2 1 3 3 4 1 1 1 1 1 1 1
6 5 7 7 9 9 8 8 9 10 9 9 9 5 4 6 6 6 6 6 5 4 5 5 5 5 4 4 5 5 5 4 3 6 5 6 5 4 3 4 4 3 2 3 2 3 5 3 2 2 1 1 2 1 2 2 1 1 1 1 2 2
5 6 7 7 8 9 9 8 9 9 9 8 7 8 8 6 6 6 7 6 5 5 4 5 6 5 4 5 5 6 5 5 6 5 6 5 5 5 5 4 4 3 3 3 3 4 3 2 4 2 2 2 2 2 2 2 2 1 2 2 1 2
7 7 7 8 9 8 9 9 10 9 8 6 8 8 7 7 7 7 6 4 6 5 6 6 6 5 5 5 4 4 4 5 5 4 5 5 4 4 4 4 5 5 5 5 4 3 4 3 3 2 2 1 2 1 2 2 2 2 1 1 1 1
9 8 8 9 9 9 9 8 9 8 10 9 8 7 7 7 7 6 7 6 6 6 6 5 5 5 4 4 4 4 4 4 4 4 4 4 4 4 4 4 4 4 4 5 4 4 4 3 4 3 2 4 2 1 1 1 0 0 0 0 0 0
11 8 9 9 9 10 9 8 8 9 12 11 10 9 8 7 6 6 8 7 7 6 5 6 6 4 5 4 4 4 4 4 4 4 4 4 4 3 3 4 4 5 5 5 5 5 6 5 4 5 5 5 5 4 4 3 3 3 3 2 1 2
9 9 9 9 8 8 8 7 6 9 12 11 10 9 10 9 7 7 7 7 7 6 5 6 5 5 4 4 4 4 4 4 4 4 4 3 3 4 4 4 5 5 5 4 5 5 4 5 5 5 5 6 5 4 4 4 2 4 5 2 2 1
10 10 9 8 7 7 7 6 6 9 9 9 10 10 9 8 6 7 6 7 8 7 6 6 5 6 4 4 4 3 4 4 4 4 3 4 4 4 4 4 4 4 4 4 4 4 5 4 4 4 4 3 5 5 5 3 4 3 3 5 5 4
7 8 7 7 6 6 7 6 5 7 8 9 9 9 8 8 7 6 6 7 8 8 7 7 6 5 5 5 3 3 4 4 4 3 3 3 4 3 4 5 4 4 4 3 4 4 4 4 4 4 4 6 5 5 4 4 4 6 5 4 4 3
11 4 4 6 5 5 4 4 4 6 7 7 9 8 7 7 7 7 6 7 7 7 7 7 7 6 5 5 4 3 4 5 4 3 3 2 2 3 4 4 4 3 3 4 4 5 4 4 4 4 4 4 5 4 4 5 5 5 4 4 2 1
5 4 9 2 3 2 3 3 4 6 7 7 8 8 7 6 6 7 6 7 7 7 7 7 7 7 6 6 4 4 4 4 4 3 2 1 1 3 4 4 4 3 3 2 3 4 2 3 3 3 4 3 5 4 4 4 4 4 4 3 4 2
5 5 13 9 6 3 0 2 2 5 6 6 8 8 8 7 7 6 6 6 7 7 6 6 7 7 7 5 6 5 5 4 4 4 2 1 1 1 4 4 4 4 3 1 3 3 1 3 1 1 3 4 4 4 4 3 3 4 3 4 4 4
Wind_Direction
141 133 128 125 125 122 125 120 118 120 118 114 119 137 162 181 134 117 114 122 111 110 111 122 127 133 142 137 140 148 154 154 156 154 159 161 160 162 164 166 170 181 193 199 196 215 241 253 273 286 296 297 316 329 300 39 155 134 134 142 137 141
137 132 131 130 130 124 120 116 112 115 120 121 130 145 164 174 129 123 150 137 91 64 61 129 172 156 141 146 148 156 154 157 156 159 160 160 156 158 163 166 172 193 209 220 222 233 275 288 279 279 291 299 315 297 308 50 106 127 127 132 141 146
132 126 128 135 134 133 126 126 124 125 126 128 142 149 160 163 96 113 121 102 103 78 80 38 161 150 140 153 147 154 155 157 158 156 155 146 157 156 163 160 177 191 200 222 255 283 288 279 279 274 280 300 303 298 308 80 126 129 135 143 142 149
132 129 137 139 134 139 138 136 140 135 126 140 149 137 162 163 122 121 121 100 99 127 114 33 123 202 185 137 141 145 155 159 158 154 156 160 161 166 170 173 188 196 207 225 237 267 272 282 274 262 258 265 288 295 295 90 128 118 131 144 147 152
138 142 141 137 137 138 129 132 135 134 131 145 139 132 164 152 138 111 125 130 157 161 156 188 154 186 180 155 135 116 116 115 134 145 152 133 129 165 154 164 186 198 211 230 238 245 257 265 260 223 218 230 258 280 288 112 124 121 136 141 151 157
144 139 137 137 139 139 129 129 127 133 129 142 132 141 123 124 56 103 130 139 162 185 175 167 164 186 171 142 128 120 135 149 152 139 136 141 174 164 171 171 182 209 231 223 225 237 237 242 261 228 210 215 233 261 264 124 123 118 120 133 160 159
138 138 141 139 135 134 129 130 136 132 135 143 145 155 140 125 132 89 135 160 156 162 127 117 149 203 152 123 119 118 109 101 111 86 148 154 151 185 179 195 193 209 220 232 244 246 235 240 237 218 198 242 232 234 241 118 129 120 131 150 164 161
143 141 150 139 136 134 127 129 143 140 129 159 146 161 165 156 148 173 186 154 133 143 140 133 202 177 147 92 92 109 128 114 106 113 104 110 114 53 27 58 278 255 222 232 243 246 244 231 196 193 181 201 196 233 211 114 132 128 143 153 163 165
144 144 139 126 117 119 120 117 107 118 140 156 154 160 155 145 142 166 190 146 142 179 143 157 191 165 117 106 111 106 121 114 104 106 109 101 90 122 175 167 177 248 347 303 283 291 298 276 208 188 175 190 126 203 229 119 134 148 150 157 165 172
145 139 135 125 128 127 132 126 130 141 152 145 144 134 138 143 159 159 170 154 155 164 156 155 131 121 120 134 133 133 115 112 112 124 127 136 95 143 154 77 31 304 251 245 226 294 344 331 301 230 223 236 269 167 190 151 149 154 149 164 168 174
144 142 143 136 141 144 147 146 150 151 141 132 145 154 130 125 150 156 166 170 132 153 112 55 86 122 113 125 121 130 128 123 190 194 141 136 141 139 54 115 169 220 231 267 279 342 16 327 320 314 238 204 230 260 172 165 148 147 153 167 170 172
142 140 140 143 143 150 154 141 140 134 135 137 142 143 142 139 156 171 160 145 136 147 124 111 75 24 25 86 96 117 141 150 192 201 143 136 113 99 92 64 211 257 262 235 330 321 286 315 311 357 313 242 243 233 227 167 151 159 160 161 177 176
140 145 136 152 160 151 129 130 135 138 128 125 117 113 110 129 152 139 103 114 138 144 68 95 69 38 353 11 223 228 175 175 163 117 112 116 87 85 99 197 193 210 248 321 302 293 292 38 319 37 1 4 335 261 268 187 171 161 162 165 173 175
122 126 125 129 120 134 129 126 133 136 130 125 141 132 128 120 112 130 133 96 79 61 67 60 109 92 129 219 207 184 158 136 147 130 116 94 96 74 351 326 143 242 276 311 273 253 254 299 320 23 25 4 17 338 350 13 296 171 165 167 174 176
101 102 101 99 106 126 126 130 147 138 146 149 154 151 137 136 116 133 133 115 88 94 113 114 84 82 354 247 331 21 18 92 88 78 104 131 128 111 155 221 209 184 260 5 316 281 229 194 318 358 28 15 14 355 4 14 35 24 142 175 167 171
97 97 96 100 99 113 133 147 152 151 152 152 151 153 155 158 155 143 135 136 116 110 117 138 129 154 173 291 293 215 208 187 149 116 138 151 130 152 174 202 355 21 40 337 24 9 3 358 359 354 28 47 27 21 24 28 21 9 55 137 172 182
108 106 105 103 105 107 122 141 153 157 164 157 147 156 154 139 140 135 141 125 138 157 177 175 142 154 153 181 195 173 202 230 140 107 74 99 136 158 158 128 74 313 32 80 66 28 4 4 345 17 16 46 36 19 47 36 11 7 25 44 133 187
117 118 120 115 114 118 119 113 100 116 127 130 140 148 127 125 132 151 136 129 141 158 178 195 193 162 152 178 212 220 201 168 140 94 85 99 93 101 83 85 62 2 37 78 68 53 357 312 290 37 38 43 1 34 55 47 35 11 19 32 11 107
124 128 123 116 112 101 110 108 105 94 78 89 105 127 125 112 117 103 113 118 107 107 148 182 180 163 163 175 193 234 243 192 118 100 95 96 279 259 113 97 115 17 328 92 129 137 181 241 292 34 52 23 10 358 15 33 74 53 5 7 10 1
128 128 125 119 120 121 119 131 100 65 75 76 73 81 81 95 85 73 64 62 72 82 83 103 157 172 171 169 189 190 245 291 117 129 122 118 203 280 124 139 131 150 164 266 162 168 155 148 354 25 10 335 27 14 339 347 351 58 8 344 352 349
146 139 137 139 141 140 141 118 102 115 119 99 94 87 80 75 74 74 74 76 83 86 84 76 63 98 133 168 156 142 148 233 241 135 147 162 179 324 41 113 124 115 179 211 332 66 92 129 106 6 355 328 289 244 202 261 332 350 355 336 345 349
147 154 159 161 161 153 158 158 149 151 131 120 104 92 81 70 75 78 79 80 84 101 114 110 89 59 42 89 141 148 156 178 189 183 174 159 136 152 153 170 104 91 38 140 225 206 193 115 27 176 152 291 312 273 241 162 36 322 327 333 348 336
163 167 174 170 151 159 158 153 122 124 116 92 90 117 111 111 98 86 73 73 61 48 90 110 108 79 77 67 80 117 149 158 168 164 143 147 169 162 166 170 166 156 180 209 207 182 207 237 145 286 126 83 321 7 327 353 354 318 276 309 324 324
176 175 174 156 130 116 104 103 107 113 107 114 125 116 114 104 89 90 90 73 41 68 70 69 80 92 86 71 76 87 96 106 145 163 160 162 158 146 124 89 135 140 118 125 108 175 149 203 188 155 102 179 199 120 13 311 312 314 234 220 262 291
179 175 165 138 124 122 110 99 103 99 100 97 86 96 97 104 112 116 109 72 68 66 74 74 74 76 72 69 67 71 84 108 114 109 112 111 137 172 171 149 133 142 173 158 154 175 40 175 127 44 144 100 49 30 235 227 111 297 13 39 357 341
185 165 148 145 135 126 125 129 125 121 120 121 125 123 133 138 125 128 133 127 78 79 81 76 73 71 74 79 68 60 46 71 91 87 95 84 71 70 50 93 171 142 104 84 138 116 112 28 103 106 70 128 161 175 172 244 99 223 348 28 342 3
184 161 153 149 139 131 130 134 134 135 139 144 145 159 142 137 134 132 117 101 111 92 93 93 83 81 70 63 65 60 56 39 54 86 80 73 77 86 69 56 50 81 120 129 130 132 156 154 96 76 166 167 146 126 128 117 190 104 95 308 7 335
184 163 160 154 142 142 140 140 136 137 142 147 147 142 139 140 129 128 120 130 121 120 107 105 101 93 87 79 76 66 56 63 75 74 76 80 82 73 64 49 60 79 86 65 80 130 142 162 142 164 158 93 43 71 98 87 83 151 163 131 311 325
181 163 167 159 150 152 148 149 147 148 142 144 138 137 135 130 131 133 130 118 100 96 98 97 105 104 93 83 76 82 69 69 79 87 87 79 72 78 84 71 57 56 65 56 65 71 90 77 79 129 119 64 68 82 61 36 62 25 107 93 304 312
179 170 171 165 157 159 156 151 151 149 139 140 132 129 125 132 139 136 128 130 114 111 108 102 102 102 94 85 85 73 68 68 74 86 94 97 88 76 73 72 75 78 73 72 49 66 81 102 96 84 93 139 134 97 72 77 313 160 357 93 150 232
179 173 169 168 162 166 166 159 156 147 144 142 138 134 131 136 139 124 130 132 129 128 113 114 108 103 105 98 90 92 81 63 69 87 103 112 116 110 83 86 74 61 56 68 65 59 58 45 61 60 51 69 92 103 120 101 73 47 84 89 30 346
175 176 170 172 166 166 167 164 145 146 146 146 142 142 144 152 152 144 144 138 133 121 119 115 106 104 95 93 88 85 87 64 60 65 66 77 91 100 97 76 61 72 71 66 64 66 64 53 44 51 57 71 86 96 80 90 127 125 101 98 113 62
182 176 172 171 169 167 168 168 147 150 148 144 141 144 148 150 157 149 151 136 133 136 137 120 130 124 131 126 121 104 94 90 68 66 71 79 96 95 89 89 84 80 87 87 85 82 71 70 71 75 96 77 77 64 58 43 59 70 74 94 87 55
192 174 166 170 169 165 173 171 145 148 153 142 142 147 150 155 159 156 152 149 145 149 152 155 150 150 158 146 158 156 131 125 119 93 78 71 73 82 96 103 99 88 74 88 86 77 78 67 60 65 75 73 65 68 54 52 66 67 62 61 58 75
343 333 181 177 166 156 165 162 136 143 151 141 142 146 150 155 153 154 159 153 154 155 153 163 157 167 155 144 172 126 130 121 118 107 95 69 42 64 99 98 99 93 77 88 80 80 74 74 58 53 53 91 84 66 67 71 72 65 78 75 104 119
125 301 339 3 61 51 161 158 145 139 153 143 137 143 142 152 154 160 163 158 161 163 166 161 159 154 165 148 163 136 130 128 124 122 128 149 125 99 106 108 100 93 94 102 94 90 89 68 68 62 58 79 82 71 73 74 69 71 69 87 76 73
42 20 67 30 357 354 4 149 170 139 146 141 137 143 150 159 163 165 164 165 155 169 163 159 157 159 164 153 156 145 142 141 139 147 148 174 137 150 113 126 120 120 139 142 113 145 124 92 90 44 45 85 112 92 82 79 58 59 53 42 43 49